Weather in Shaytanka

Russia / Sverdlovsk Oblast     59°26′51″N   60°00′46″E
temp.,
°C
wind,
m/s
gust,
m/s
humid.,
%
clouds,
%
prec.,
mm/h
press.,
hPa
HPBL,
m
7 august, sun
sun723:00+20wnw246541 0.0 102181
02:00+17wnw117558 0.0 102111
05:00+17w1173100 0.0 102112
08:00+21nnw126785 0.0 1021140
11:00+22nw1270100 0.0 102192
14:00+28nnw12435 0.0 10201209
17:00+28wnw124053 0.0 10191769
20:00+23sw116843 0.0 101911
8 august, mon
mon823:00+21wnw1166100 0.0 101911
02:00+21wnw1164100 0.0 101911
05:00+20w116684 0.0 101911
08:00+21wnw116878 0.0 102039
11:00+23sw116378 0.0 1020235
14:00+28w224432 0.0 1019987
17:00+28nw124012 0.0 10181787
20:00+23n116784 0.0 101911
9 august, tue
tue923:00+22nw1159100 0.0 101911
02:00+20wnw116193 0.0 101915
05:00+18w11696 0.0 101911
08:00+22wnw12645 0.0 1019143
11:00+27n12465 0.0 10191005
14:00+28nne224494 0.0 10182085
17:00+21nw367996 1.5 1019384
20:00+16n2393100 3.5 101963
10 august, wed
wed1023:00+15nnw2293100 3.5 102034
02:00+15nnw249873 0.0 102084
05:00+14n239713 0.0 102156
08:00+17nne34865 0.0 1021232
11:00+22ene235825 0.0 1021807
14:00+25ese235037 0.0 10201486
17:00+22se2273100 0.2 101941
20:00+20s228254 0.3 101832
11 august, thu
thu1123:00+16ene2297100 5.6 101853
02:00+15sse119896 0.2 101715
05:00+15sw1197100 0.2 101618
08:00+18wsw139061 0.0 1016141
11:00+19wsw1488100 0.0 1015164
14:00+25sw135799 0.0 1014986
17:00+22ssw2570100 0.3 1013348
20:00+19wsw2792100 0.9 1012146